GW6056 Weather Reports


time (UTC)temp
C
wind
direction
speed
KPH
gust
KPH
rain 1hr
cm
rain 24hr
cm
rain mn
cm
humidity
%
barometer
mb
20260906044235 21 340 3.2 3.2 0.00 0.00 0.00 95 1015.6
20260906043732 21 245 0.0 0.0 0.00 0.00 0.00 94 1015.2
20260906043227 21 1 0.0 3.2 0.00 0.00 0.00 94 1015.4
20260906042727 21 36 0.0 1.6 0.00 0.00 0.00 94 1015.1
20260906042226 21 2 0.0 1.6 0.00 0.00 0.00 94 1015.0
20260906041721 22 334 1.6 3.2 0.00 0.00 0.00 94 1014.9
20260906041217 22 257 0.0 0.0 0.00 0.00 0.00 94 1015.1
20260906040712 22 31 1.6 3.2 0.00 0.00 0.00 94 1015.4
20260906040208 22 7 0.0 1.6 0.00 0.00 0.00 93 1015.4
20260906035703 22 42 0.0 1.6 0.00 0.10 0.10 93 1015.2
20260906035158 22 25 0.0 1.6 0.00 0.10 0.10 93 1015.5
20260906034653 22 15 0.0 0.0 0.00 0.10 0.10 93 1015.5
20260906034148 22 335 0.0 3.2 0.00 0.10 0.10 93 1015.6
20260906033643 22 330 1.6 3.2 0.00 0.10 0.10 93 1015.8
20260906033137 22 308 0.0 3.2 0.00 0.10 0.10 92 1015.9
20260906032634 22 323 0.0 0.0 0.00 0.10 0.10 92 1015.8
20260906032133 22 336 1.6 3.2 0.00 0.10 0.10 92 1015.8
20260906031629 22 340 3.2 3.2 0.00 0.10 0.10 93 1015.9
20260906031125 22 328 0.0 3.2 0.00 0.10 0.10 93 1015.8
20260906030624 22 327 3.2 3.2 0.00 0.10 0.10 93 1015.8
20260906030119 22 337 0.0 3.2 0.00 0.10 0.10 91 1015.7
20260906025619 22 25 0.0 1.6 0.00 0.10 0.10 91 1015.6
20260906025117 23 315 0.0 1.6 0.00 0.10 0.10 90 1015.7
20260906024612 22 328 1.6 3.2 0.00 0.10 0.10 91 1015.5
20260906024107 22 325 0.0 1.6 0.00 0.10 0.10 92 1015.5
20260906023603 22 12 1.6 1.6 0.00 0.10 0.10 92 1015.2
20260906023057 22 355 1.6 3.2 0.00 0.10 0.10 92 1015.4
20260906022552 22 287 0.0 3.2 0.00 0.10 0.10 92 1015.2
20260906022048 22 8 0.0 3.2 0.00 0.10 0.10 93 1015.5
20260906021544 22 36 0.0 1.6 0.00 0.10 0.10 94 1015.1
20260906021043 22 320 0.0 3.2 0.00 0.10 0.10 94 1015.5
20260906020542 22 327 3.2 4.8 0.00 0.10 0.10 94 1015.0
20260906020042 23 337 3.2 4.8 0.00 0.10 0.10 93 1015.2
20260906015541 23 1 1.6 3.2 0.00 0.10 0.10 93 1015.2
20260906015041 23 333 1.6 3.2 0.00 0.10 0.10 94 1015.4
20260906014536 23 319 1.6 3.2 0.00 0.10 0.10 94 1015.2
20260906014032 23 36 3.2 3.2 0.00 0.10 0.10 93 1015.1
20260906013527 23 39 3.2 3.2 0.00 0.10 0.10 94 1015.4
20260906013023 23 29 1.6 3.2 0.00 0.10 0.10 94 1015.4
20260906012518 23 340 1.6 3.2 0.00 0.10 0.10 94 1015.0
20260906012017 23 344 1.6 4.8 0.00 0.10 0.10 94 1014.7
20260906011513 23 341 3.2 3.2 0.00 0.10 0.10 93 1014.8
20260906011013 23 334 1.6 4.8 0.00 0.10 0.10 93 1014.9
20260906010508 23 334 3.2 3.2 0.00 0.10 0.10 93 1014.9
20260906010005 23 355 0.0 3.2 0.00 0.10 0.10 92 1014.9
20260906005504 23 18 3.2 3.2 0.00 0.10 0.10 92 1014.8
20260906005003 23 31 3.2 3.2 0.00 0.10 0.10 92 1014.6
20260906004503 23 3 1.6 3.2 0.00 0.10 0.10 92 1014.6
20260906003958 23 335 3.2 3.2 0.00 0.10 0.10 92 1014.6
20260906003453 24 354 3.2 3.2 0.00 0.10 0.10 91 1014.4
20260906002948 24 326 0.0 3.2 0.00 0.10 0.10 91 1014.5
20260906002448 24 335 3.2 4.8 0.00 0.10 0.10 91 1014.1
20260906001943 24 34 3.2 4.8 0.00 0.10 0.10 91 1014.2
20260906001439 25 330 3.2 4.8 0.00 0.10 0.10 90 1014.2
20260906000934 25 351 1.6 3.2 0.00 0.10 0.10 89 1014.2
20260906000430 25 354 1.6 3.2 0.00 0.10 0.10 89 1014.2
20260905235924 25 332 3.2 3.2 0.00 0.10 0.10 88 1014.3
20260905235424 25 340 3.2 3.2 0.00 0.10 0.10 86 1014.1
20260905234919 25 311 0.0 1.6 0.00 0.10 0.10 86 1014.1
20260905234415 25 348 1.6 3.2 0.00 0.10 0.10 86 1014.1
20260905233915 25 357 1.6 1.6 0.00 0.10 0.10 85 1013.9
20260905233410 26 326 3.2 3.2 0.00 0.10 0.10 85 1014.2
20260905232909 26 328 3.2 3.2 0.00 0.10 0.10 84 1014.0
20260905232405 26 299 3.2 3.2 0.00 0.10 0.10 82 1014.0
20260905231900 26 317 3.2 4.8 0.00 0.10 0.10 80 1014.0
20260905231356 27 192 1.6 1.6 0.00 0.10 0.10 77 1013.9
20260905230853 27 326 0.0 0.0 0.00 0.10 0.10 76 1013.9
20260905230350 27 32 0.0 1.6 0.00 0.10 0.10 74 1013.9
20260905225849 27 37 0.0 1.6 0.00 0.10 0.10 74 1013.7
20260905225344 28 186 0.0 0.0 0.00 0.10 0.10 71 1013.5
20260905224839 28 304 0.0 1.6 0.00 0.10 0.10 70 1013.6
20260905224335 28 325 0.0 3.2 0.00 0.10 0.10 72 1013.6
20260905223830 28 341 0.0 3.2 0.00 0.10 0.10 69 1013.5
20260905223327 28 315 0.0 3.2 0.00 0.10 0.10 68 1013.7
20260905222822 28 317 1.6 3.2 0.00 0.10 0.10 66 1013.6
20260905222321 29 314 1.6 3.2 0.00 0.10 0.10 61 1013.8
20260905221817 30 353 0.0 1.6 0.00 0.10 0.10 66 1013.8
20260905221314 30 328 0.0 0.0 0.00 0.10 0.10 64 1013.7
20260905220809 30 197 1.6 3.2 0.00 0.10 0.10 62 1014.0
20260905220306 31 325 1.6 3.2 0.00 0.10 0.10 61 1013.7
20260905215804 31 348 3.2 3.2 0.00 0.10 0.10 64 1013.7
20260905215301 31 240 0.0 1.6 0.00 0.10 0.10 63 1014.0
20260905214756 31 229 1.6 1.6 0.00 0.10 0.10 62 1013.8
20260905214252 31 119 0.0 3.2 0.00 0.10 0.10 63 1013.8
20260905213747 30 237 0.0 1.6 0.00 0.10 0.10 67 1014.0
20260905213243 30 220 0.0 1.6 0.00 0.10 0.10 65 1014.1
20260905212738 30 302 3.2 3.2 0.00 0.10 0.10 68 1013.9
20260905212237 30 288 0.0 6.4 0.00 0.10 0.10 68 1014.0
20260905211737 29 323 1.6 3.2 0.00 0.10 0.10 66 1014.0
20260905211232 29 191 1.6 1.6 0.00 0.10 0.10 66 1014.2
20260905210729 28 344 0.0 3.2 0.00 0.10 0.10 68 1014.1
20260905210229 28 215 0.0 4.8 0.00 0.10 0.10 70 1014.3
20260905205727 27 180 3.2 3.2 0.00 0.10 0.10 74 1014.2
20260905205222 26 314 0.0 3.2 0.00 0.10 0.10 77 1014.4
20260905204722 26 236 0.0 3.2 0.00 0.10 0.10 81 1014.4
20260905204218 26 259 3.2 3.2 0.00 0.10 0.10 79 1014.5
20260905203717 25 287 0.0 3.2 0.00 0.10 0.10 79 1014.7
20260905203213 25 293 3.2 3.2 0.00 0.10 0.10 81 1014.7
20260905202708 25 308 0.0 4.8 0.00 0.10 0.10 82 1015.0
20260905202203 25 240 0.0 3.2 0.00 0.10 0.10 81 1014.9
20260905201659 25 36 0.0 1.6 0.00 0.10 0.10 83 1014.8
20260905201159 25 163 0.0 3.2 0.00 0.10 0.10 83 1015.1
20260905200654 25 346 0.0 3.2 0.00 0.10 0.10 86 1015.0
20260905200149 25 346 0.0 3.2 0.00 0.10 0.10 84 1015.0
20260905195648 24 325 3.2 4.8 0.00 0.10 0.10 84 1015.2
20260905195143 24 359 0.0 3.2 0.00 0.10 0.10 83 1014.9
20260905194638 24 341 1.6 3.2 0.00 0.10 0.10 86 1015.2
20260905194137 24 7 3.2 3.2 0.00 0.10 0.10 84 1015.1
20260905193632 23 359 3.2 3.2 0.00 0.10 0.10 86 1014.9
20260905193127 23 338 3.2 3.2 0.00 0.10 0.10 86 1015.4
20260905192623 23 323 3.2 3.2 0.00 0.10 0.10 86 1015.2
20260905192119 23 8 1.6 3.2 0.00 0.10 0.10 85 1015.5
20260905191618 23 4 1.6 3.2 0.00 0.10 0.10 87 1015.4
20260905191116 23 347 3.2 3.2 0.00 0.10 0.10 86 1015.2
20260905190615 23 355 3.2 3.2 0.00 0.10 0.10 87 1015.5
20260905190114 23 358 3.2 3.2 0.05 0.10 0.10 86 1015.5
20260905185613 23 167 0.0 1.6 0.05 0.10 0.10 87 1015.2
20260905185108 23 4 3.2 3.2 0.00 0.08 0.08 86 1015.0
20260905184603 22 57 1.6 3.2 0.00 0.08 0.08 87 1015.2
20260905184101 23 348 1.6 4.8 0.00 0.08 0.08 89 1015.6
20260905183555 23 314 6.4 6.4 0.00 0.08 0.08 86 1015.2
20260905183051 23 164 0.0 8.0 0.00 0.08 0.08 83 1015.6
20260905182550 23 15 3.2 4.8 0.00 0.08 0.08 84 1015.4
20260905182044 24 54 4.8 4.8 0.05 0.08 0.08 82 1015.6
20260905181539 25 9 1.6 6.4 0.05 0.08 0.08 83 1014.7
20260905181038 25 344 0.0 4.8 0.36 0.08 0.08 78 1014.4
20260905180533 26 295 3.2 3.2 0.36 0.05 0.05 72 1014.6
20260905180029 27 325 6.4 9.7 0.05 0.00 0.00 61 1015.0
20260905175528 28 314 4.8 9.7 0.00 0.00 0.00 62 1015.6
20260905175024 30 326 9.7 19.3 0.00 0.00 0.00 60 1016.1
20260905174519 31 344 3.2 8.0 0.00 0.00 0.00 61 1016.4
20260905174014 31 326 4.8 6.4 0.00 0.00 0.00 62 1016.1
20260905173511 32 298 6.4 9.7 0.00 0.00 0.00 56 1015.7
20260905173006 32 340 3.2 6.4 0.00 0.00 0.00 57 1016.0
20260905172504 32 314 6.4 6.4 0.00 0.00 0.00 60 1016.0
20260905172000 32 319 1.6 6.4 0.00 0.00 0.00 58 1015.9
20260905171456 32 352 3.2 3.2 0.00 0.00 0.00 60 1016.0
20260905170952 31 299 4.8 6.4 0.00 0.00 0.00 61 1015.9
20260905170448 31 304 6.4 6.4 0.00 0.00 0.00 58 1016.1
20260905165948 31 308 3.2 6.4 0.00 0.00 0.00 66 1016.1
20260905165443 31 312 6.4 6.4 0.00 0.00 0.00 61 1016.0
20260905164938 31 326 4.8 4.8 0.00 0.00 0.00 65 1016.2
20260905164437 31 345 3.2 6.4 0.00 0.00 0.00 65 1016.1
20260905163932 31 22 3.2 4.8 0.00 0.00 0.00 62 1016.1
20260905163429 31 224 0.0 6.4 0.00 0.00 0.00 60 1016.2
20260905162925 30 172 0.0 4.8 0.00 0.00 0.00 66 1016.1
20260905162420 30 26 1.6 3.2 0.00 0.00 0.00 70 1016.2
20260905161916 30 349 0.0 3.2 0.00 0.00 0.00 68 1016.5
20260905161414 30 6 0.0 3.2 0.00 0.00 0.00 68 1016.6
20260905160912 30 62 1.6 3.2 0.00 0.00 0.00 68 1016.5
20260905160406 30 7 3.2 3.2 0.00 0.00 0.00 69 1016.5
20260905155901 30 45 1.6 3.2 0.00 0.00 0.00 70 1016.7
20260905155400 30 345 3.2 3.2 0.00 0.00 0.00 72 1016.8
20260905154859 30 338 0.0 3.2 0.00 0.00 0.00 73 1016.8
20260905154355 30 27 0.0 3.2 0.00 0.00 0.00 67 1016.8
20260905153850 30 341 0.0 3.2 0.00 0.00 0.00 73 1016.7
20260905153347 30 339 0.0 3.2 0.00 0.00 0.00 71 1016.5
20260905152846 30 111 0.0 1.6 0.00 0.00 0.00 71 1016.5
20260905152346 29 289 0.0 4.8 0.00 0.00 0.00 74 1016.4
20260905151841 29 65 1.6 3.2 0.00 0.00 0.00 73 1016.3
20260905151337 28 314 0.0 1.6 0.00 0.00 0.00 73 1016.3
20260905150836 28 263 0.0 3.2 0.00 0.00 0.00 72 1016.5
20260905150331 28 338 1.6 3.2 0.00 0.00 0.00 73 1016.3
20260905145828 28 326 1.6 4.8 0.00 0.00 0.00 73 1016.5
20260905145328 28 312 0.0 1.6 0.00 0.00 0.00 77 1016.4
20260905144827 28 227 0.0 1.6 0.00 0.00 0.00 77 1016.5
20260905144323 27 347 1.6 3.2 0.00 0.00 0.00 76 1016.6
20260905143821 27 326 0.0 3.2 0.00 0.00 0.00 77 1016.4
20260905143316 27 295 0.0 1.6 0.00 0.00 0.00 74 1016.6
20260905142816 27 273 1.6 3.2 0.00 0.00 0.00 78 1016.3
20260905142315 27 343 0.0 3.2 0.00 0.00 0.00 80 1016.6
20260905141811 27 307 0.0 0.0 0.00 0.00 0.00 81 1016.5
20260905141307 26 228 0.0 3.2 0.00 0.00 0.00 80 1016.6
20260905140802 26 262 0.0 3.2 0.00 0.00 0.00 82 1016.7
20260905140302 26 149 0.0 3.2 0.00 0.00 0.00 82 1016.7
20260905135800 26 276 3.2 3.2 0.00 0.00 0.00 83 1016.5
20260905135257 26 318 3.2 3.2 0.00 0.00 0.00 83 1016.3
20260905134757 26 337 0.0 1.6 0.00 0.00 0.00 84 1016.6
20260905134256 25 216 0.0 3.2 0.00 0.00 0.00 85 1016.5
20260905133751 25 218 0.0 1.6 0.00 0.00 0.00 86 1016.5
20260905133246 25 5 1.6 3.2 0.00 0.00 0.00 86 1016.5
20260905132745 25 349 1.6 1.6 0.00 0.00 0.00 88 1016.5
20260905132241 24 320 1.6 3.2 0.00 0.00 0.00 89 1016.5
20260905131735 24 13 1.6 3.2 0.00 0.00 0.00 90 1016.9
20260905131231 24 327 3.2 3.2 0.00 0.00 0.00 91 1016.9
20260905130725 23 17 1.6 3.2 0.00 0.00 0.00 91 1016.8
20260905130225 23 40 3.2 3.2 0.00 0.00 0.00 90 1016.9
20260905125720 23 334 1.6 3.2 0.00 0.00 0.00 91 1017.1
20260905125215 23 10 0.0 1.6 0.00 0.00 0.00 92 1017.1
20260905124712 23 356 0.0 3.2 0.00 0.00 0.00 93 1017.1
20260905124207 22 325 0.0 3.2 0.00 0.00 0.00 94 1017.0
20260905123703 22 9 1.6 3.2 0.00 0.00 0.00 94 1016.8
20260905123159 22 336 0.0 4.8 0.00 0.00 0.00 96 1016.8
20260905122658 22 327 0.0 3.2 0.00 0.00 0.00 96 1016.9
20260905122153 22 333 0.0 1.6 0.00 0.00 0.00 96 1016.7
20260905121648 21 10 0.0 0.0 0.00 0.00 0.00 97 1016.9
20260905121144 21 328 0.0 1.6 0.00 0.00 0.00 96 1016.7
20260905120643 21 51 0.0 1.6 0.00 0.00 0.00 96 1016.7
20260905120138 21 0 0.0 0.0 0.00 0.00 0.00 96 1016.7
20260905115637 21 1 0.0 3.2 0.00 0.00 0.00 96 1016.8
20260905115132 21 338 0.0 1.6 0.00 0.00 0.00 96 1016.8
20260905114632 21 348 3.2 4.8 0.00 0.00 0.00 96 1016.7
20260905114130 21 33 0.0 3.2 0.00 0.00 0.00 96 1016.6
20260905113625 21 22 0.0 3.2 0.00 0.00 0.00 96 1016.6
20260905113121 21 339 1.6 3.2 0.00 0.00 0.00 96 1016.3
20260905112618 21 316 3.2 4.8 0.00 0.00 0.00 96 1016.2
20260905112111 21 326 3.2 4.8 0.00 0.00 0.00 96 1016.2
20260905111606 21 338 3.2 3.2 0.00 0.00 0.00 96 1016.1
20260905111105 21 31 0.0 0.0 0.00 0.00 0.00 96 1016.1
20260905110604 21 40 0.0 3.2 0.00 0.00 0.00 96 1016.2
20260905110100 21 36 0.0 1.6 0.00 0.00 0.00 96 1016.0
20260905105600 21 323 0.0 1.6 0.00 0.00 0.00 96 1015.8
20260905105059 21 355 1.6 3.2 0.00 0.00 0.00 96 1015.6
20260905104555 21 319 0.0 0.0 0.00 0.00 0.00 96 1015.8
20260905104055 21 269 0.0 3.2 0.00 0.00 0.00 96 1015.6
20260905103550 21 312 0.0 4.8 0.00 0.00 0.00 96 1015.7
20260905103046 21 325 0.0 4.8 0.00 0.00 0.00 96 1015.5
20260905102541 21 50 1.6 4.8 0.00 0.00 0.00 96 1015.5
20260905102038 21 315 0.0 4.8 0.00 0.00 0.00 96 1015.6
20260905101536 21 19 1.6 3.2 0.00 0.00 0.00 96 1015.6
20260905101035 21 347 0.0 1.6 0.00 0.00 0.00 96 1015.6
20260905100531 21 12 0.0 0.0 0.00 0.00 0.00 96 1015.6
20260905100031 21 347 0.0 0.0 0.00 0.00 0.00 96 1015.6
20260905095525 21 341 1.6 1.6 0.00 0.00 0.00 96 1015.5
20260905095021 21 323 1.6 1.6 0.00 0.00 0.00 96 1015.6
20260905094516 21 330 1.6 3.2 0.00 0.00 0.00 96 1015.8
20260905094015 21 6 0.0 3.2 0.00 0.00 0.00 96 1015.7
20260905093510 22 356 0.0 1.6 0.00 0.00 0.00 95 1015.8
20260905093006 22 346 1.6 1.6 0.00 0.00 0.00 95 1015.6
20260905092501 22 344 0.0 1.6 0.00 0.00 0.00 95 1015.7
20260905091957 22 341 0.0 1.6 0.00 0.00 0.00 95 1015.7
20260905091456 22 343 0.0 1.6 0.00 0.00 0.00 95 1015.5
20260905090955 22 17 0.0 1.6 0.00 0.00 0.00 94 1015.6
20260905090451 22 6 0.0 0.0 0.00 0.00 0.00 94 1015.6
20260905085950 22 55 0.0 1.6 0.00 0.00 0.00 94 1015.7
20260905085449 22 315 0.0 0.0 0.00 0.00 0.00 94 1015.6
20260905084945 22 319 0.0 0.0 0.00 0.00 0.00 95 1015.6
20260905084444 22 331 0.0 0.0 0.00 0.00 0.00 95 1015.7
20260905083939 22 323 3.2 3.2 0.00 0.00 0.00 95 1015.8
20260905083435 22 2 0.0 1.6 0.00 0.00 0.00 95 1015.9
20260905082931 22 346 0.0 0.0 0.00 0.00 0.00 95 1015.9
20260905082426 22 12 0.0 0.0 0.00 0.00 0.00 95 1015.9
20260905081921 22 17 0.0 0.0 0.00 0.00 0.00 94 1016.2
20260905081416 22 6 1.6 1.6 0.00 0.00 0.00 95 1016.0
20260905080915 22 0 3.2 3.2 0.00 0.00 0.00 95 1016.2
20260905080415 22 327 0.0 0.0 0.00 0.00 0.00 95 1016.2
20260905075914 22 336 3.2 3.2 0.00 0.00 0.00 95 1016.3
20260905075409 22 325 1.6 3.2 0.00 0.00 0.00 95 1016.2
20260905074908 22 7 0.0 0.0 0.00 0.00 0.00 95 1016.5
20260905074404 22 349 3.2 3.2 0.00 0.00 0.00 95 1016.7
20260905073859 22 12 0.0 3.2 0.00 0.00 0.00 94 1016.4
20260905073354 22 358 0.0 0.0 0.00 0.00 0.00 94 1016.4
20260905072849 22 6 0.0 3.2 0.00 0.00 0.00 94 1016.6
20260905072344 22 5 1.6 3.2 0.00 0.00 0.00 94 1016.5
20260905071840 22 0 3.2 3.2 0.00 0.00 0.00 93 1016.5
20260905071332 23 26 1.6 3.2 0.00 0.00 0.00 93 1016.5
20260905070831 23 358 3.2 3.2 0.00 0.00 0.00 93 1016.5
20260905070328 22 318 3.2 3.2 0.00 0.00 0.00 93 1016.5
20260905065826 22 21 0.0 3.2 0.00 0.00 0.00 94 1016.7
20260905065325 23 15 0.0 3.2 0.00 0.00 0.00 94 1016.6
20260905064820 23 357 1.6 3.2 0.00 0.00 0.00 94 1016.7
20260905064316 23 2 1.6 3.2 0.00 0.00 0.00 94 1016.8
20260905063814 23 43 3.2 3.2 0.00 0.00 0.00 94 1016.9
20260905063310 23 38 3.2 3.2 0.00 0.00 0.00 93 1016.6
20260905062807 23 314 0.0 3.2 0.00 0.00 0.00 93 1016.7
20260905062305 23 347 1.6 3.2 0.00 0.00 0.00 94 1016.9
20260905061756 23 301 0.0 3.2 0.00 0.00 0.00 94 1017.1
20260905061255 23 4 1.6 3.2 0.00 0.00 0.00 94 1017.1
20260905060749 23 331 3.2 3.2 0.00 0.00 0.00 94 1017.3
20260905060247 23 359 3.2 3.2 0.00 0.00 0.00 93 1017.3
20260905055745 23 5 3.2 3.2 0.00 0.00 0.00 93 1017.3
20260905055240 23 344 3.2 3.2 0.00 0.00 0.00 93 1017.4
20260905054735 23 23 3.2 3.2 0.00 0.00 0.00 93 1017.4
20260905054232 23 14 1.6 3.2 0.00 0.00 0.00 92 1017.3
20260905053731 23 22 3.2 3.2 0.00 0.00 0.00 92 1017.3
20260905053227 23 12 0.0 3.2 0.00 0.00 0.00 92 1017.3
20260905052726 23 350 0.0 3.2 0.00 0.00 0.00 92 1017.4
20260905052221 23 335 3.2 3.2 0.00 0.00 0.00 93 1017.5
20260905051720 23 336 3.2 3.2 0.00 0.00 0.00 93 1017.4
20260905051218 23 340 3.2 3.2 0.00 0.00 0.00 93 1017.4
20260905050713 23 351 3.2 3.2 0.00 0.00 0.00 92 1017.3
20260905050210 23 8 3.2 3.2 0.00 0.00 0.00 93 1017.4
20260905045709 23 8 0.0 3.2 0.00 0.00 0.00 92 1017.5
20260905045205 23 7 0.0 1.6 0.00 0.00 0.00 93 1017.4
20260905044700 23 0 1.6 3.2 0.00 0.00 0.00 93 1017.6